Weather History for Little Rock AFB, AR

Change the Weather History Date:

Wednesday, April 16, 2014

  Actual Average Record
Temperature  
Mean Temperature 46 °F -  
Max Temperature 60 °F 75 °F 88 °F (2013)
Min Temperature 33 °F 49 °F 31 °F (1983)
Degree Days  
Heating Degree Days 18    
Moisture  
Dew Point 33 °F    
Average Humidity 62    
Maximum Humidity 95    
Minimum Humidity 35    
Precipitation  
Precipitation 0.00 in - - ()
Sea Level Pressure  
Sea Level Pressure 30.20 in    
Wind  
Wind Speed 4 mph (ESE)    
Max Wind Speed 13 mph    
Max Gust Speed 21 mph    
Visibility 10 miles    
Events      
Averages and records for this station are not official NWS values.
T = Trace of Precipitation, MM = Missing Value Source: NWS Daily Summary

Daily Weather History Graph

Daily Weather History Graph

Search for Another Location

Airport:

Trip Planner

Search our weather history database for the weather conditions in past years. The results will help you decide how hot, cold, wet, or windy it might be!

Date:

Astronomy

Apr. 16, 2014 Rise Set
Actual Time 6:35 AM CDT 7:41 PM CDT
Civil Twilight 6:09 AM CDT 8:07 PM CDT
Nautical Twilight 5:38 AM CDT 8:39 PM CDT
Astronomical Twilight 5:06 AM CDT 9:11 PM CDT
Moon 9:22 PM CDT (4/16) 7:25 AM CDT (4/16)
Length of Visible Light 13h 58m
Length of Day
13h 06m
Full, 98% of the Moon is Illuminated
Apr 16
Full
Apr 22
Last Quarter
Apr 29
New
May 6
First Quarter
May 14
Full

Hourly Weather History & Observations

Time (CDT) Temp. Windchill Dew Point Humidity Pressure Visibility Wind Dir Wind Speed Gust Speed Precip Events Conditions
12:58 AM 41.4 °F - 34.9 °F 78% 30.25 in 10.0 mi Calm Calm - N/A   Clear
1:58 AM 38.5 °F - 35.2 °F 88% 30.23 in 10.0 mi Calm Calm - N/A   Clear
2:58 AM 36.7 °F - 34.5 °F 92% 30.22 in 10.0 mi Calm Calm - N/A   Clear
3:58 AM 35.2 °F - 34.0 °F 95% 30.22 in 10.0 mi Calm Calm - N/A   Clear
4:58 AM 34.3 °F - 32.9 °F 94% 30.22 in 10.0 mi Calm Calm - N/A   Clear
5:58 AM 34.2 °F - 32.7 °F 94% 30.23 in 10.0 mi NNE 1.2 mph - N/A   Clear
6:58 AM 33.6 °F - 32.0 °F 94% 30.25 in 10.0 mi NE 2.3 mph - N/A   Clear
7:58 AM 42.3 °F 40.5 °F 34.0 °F 72% 30.28 in 10.0 mi ESE 3.5 mph - N/A   Clear
8:58 AM 46.9 °F - 28.0 °F 48% 30.29 in 10.0 mi SE 12.7 mph 17.3 mph N/A   Clear
9:58 AM 48.4 °F - 27.9 °F 45% 30.28 in 10.0 mi SSE 9.2 mph - N/A   Clear
10:58 AM 50.9 °F - 27.9 °F 41% 30.27 in 10.0 mi SE 11.5 mph 20.7 mph N/A   Clear
11:58 AM 53.2 °F - 30.6 °F 42% 30.25 in 10.0 mi East 11.5 mph 18.4 mph N/A   Clear
12:01 PM 53.6 °F - 32.0 °F 44% 30.24 in 10.0 mi SE 12.7 mph 19.6 mph N/A   Clear
12:58 PM 55.4 °F - 31.6 °F 40% 30.21 in 10.0 mi SSE 11.5 mph - N/A   Scattered Clouds
1:53 PM 57.2 °F - 32.0 °F 38% 30.18 in 10.0 mi SE 11.5 mph 17.3 mph N/A   Partly Cloudy
1:58 PM 57.0 °F - 30.4 °F 36% 30.19 in 10.0 mi SSE 8.1 mph 17.3 mph N/A   Partly Cloudy
2:58 PM 58.6 °F - 31.8 °F 36% 30.16 in 10.0 mi Variable 4.6 mph - N/A   Partly Cloudy
3:58 PM 59.2 °F - 32.5 °F 37% 30.13 in 10.0 mi ESE 6.9 mph - N/A   Clear
4:58 PM 60.1 °F - 32.2 °F 35% 30.12 in 10.0 mi ESE 8.1 mph - N/A   Clear
5:58 PM 59.4 °F - 32.7 °F 37% 30.09 in 10.0 mi ESE 8.1 mph - N/A   Clear
6:58 PM 58.3 °F - 33.6 °F 39% 30.10 in 10.0 mi ESE 4.6 mph - N/A   Partly Cloudy
7:58 PM 54.5 °F - 37.0 °F 52% 30.10 in 10.0 mi East 3.5 mph - N/A   Clear
8:58 PM 48.0 °F - 39.6 °F 73% 30.12 in 10.0 mi Calm Calm - N/A   Clear
9:58 PM 44.1 °F - 39.6 °F 84% 30.14 in 10.0 mi ENE 1.2 mph - N/A   Clear
10:58 PM 42.3 °F - 38.7 °F 87% 30.16 in 10.0 mi ENE 2.3 mph - N/A   Clear
11:58 PM 41.2 °F - 37.8 °F 88% 30.17 in 10.0 mi East 1.2 mph - N/A   Clear